[[{"header":{"parameterUnit":"m.s-1","parameterCategory":1,"la1":30.2991,"la2":30.254,"lo1":-89.0895,"lo2":-89.0444,"dy":0.0017,"dx":0.0017,"nx":28,"ny":28,"refTime":"2025-09-12T09:00:00:Z","depth":0,"parameterNumber":2,"parameterNumberName":"U-component_of_WINDS"},"data":[0,0,0,0,0,0,0,0,0,0,0,0,0,0,0,0,0,0,0,0,0,0,0,0,0,0,0,0,0,0,0,0,0,0,0,0,0,0,0,0,0,0,0,0,0,0,0,0,0,0,0,0,0,0,0,0,0,0,-0.0778,-0.0778,0,-0.0753,-0.0753,-0.0753,-0.074,-0.074,-0.074,-0.074,-0.0716,-0.0716,-0.0715,0,0,0,0,0,0,0,0,0,0,0,0,0,-0.0816,-0.0815,-0.0778,-0.0778,-0.0777,-0.0753,-0.0753,-0.0753,-0.074,-0.074,-0.074,-0.074,-0.0716,-0.0716,-0.0715,0,0,0,0,0,0,0,0,0,0,0,0,0,-0.0796,-0.0815,-0.0778,-0.0768,-0.0767,-0.0754,-0.0753,-0.0753,-0.074,-0.074,-0.074,-0.074,-0.0717,-0.0716,-0.0715,-0.0709,0,0,-0.0712,-0.0711,0,0,0,0,0,0,0,0,-0.0797,-0.0795,-0.077,-0.0769,-0.0768,-0.075,-0.0758,-0.0738,-0.074,-0.0751,-0.074,-0.074,-0.0727,-0.0726,-0.0721,-0.0708,-0.0707,-0.0712,-0.0711,-0.0711,-0.0711,0,0,0,0,0,0,0,-0.0799,-0.0796,-0.0768,-0.077,-0.0768,-0.0766,-0.0763,-0.0754,-0.0739,-0.075,-0.0749,-0.0746,-0.0727,-0.0722,-0.072,-0.0707,-0.0712,-0.0711,-0.071,-0.071,-0.069,-0.069,0,0,0,0,0,0,-0.0802,-0.0797,-0.0769,-0.0768,-0.0783,-0.0765,-0.0762,-0.0756,-0.074,-0.0737,-0.0746,-0.0745,-0.0724,-0.0722,-0.072,-0.0713,-0.0711,-0.071,-0.0709,-0.069,-0.069,-0.069,0,0,0,0,0,0,-0.0802,-0.0799,-0.077,-0.0782,-0.0778,-0.0764,-0.0757,-0.0755,-0.075,-0.0737,-0.0734,-0.0744,-0.0724,-0.0721,-0.0712,-0.0712,-0.071,-0.0709,-0.069,-0.069,-0.069,-0.0699,0,0,0,0,0,0,-0.0804,-0.08,-0.0797,-0.0782,-0.0778,-0.0763,-0.0757,-0.0755,-0.0749,-0.0748,-0.0734,-0.0732,-0.0723,-0.0714,-0.0711,-0.0711,-0.0708,-0.069,-0.069,-0.069,-0.0699,-0.07,-0.07,0,0,0,0,0,-0.0805,-0.08,-0.0797,-0.0793,-0.0774,-0.0763,-0.076,-0.075,-0.0749,-0.0746,-0.0738,-0.0732,-0.0712,-0.0713,-0.071,-0.0709,-0.069,-0.069,-0.069,-0.0699,-0.07,-0.07,0,0,0,0,0,0,-0.0815,-0.0798,-0.0794,-0.0784,-0.0775,-0.076,-0.0757,-0.0752,-0.0743,-0.0742,-0.0731,-0.0728,-0.0721,-0.0714,-0.0715,-0.0704,-0.0701,-0.07,-0.0708,-0.0709,-0.071,-0.0712,-0.0707,0,0,0,0,0,-0.0817,-0.0808,-0.0794,-0.0787,-0.0783,-0.0771,-0.0765,-0.0759,-0.0749,-0.0745,-0.0736,-0.0727,-0.0719,-0.0713,-0.0705,-0.0698,-0.0696,-0.0696,-0.0697,-0.0698,-0.0697,-0.0694,-0.0695,-0.069,-0.069,-0.069,0,0,-0.0819,-0.0809,-0.0804,-0.0789,-0.0781,-0.0774,-0.0767,-0.0759,-0.0754,-0.0744,-0.0735,-0.0728,-0.0718,-0.071,-0.0706,-0.0704,-0.0698,-0.0698,-0.0698,-0.0698,-0.0694,-0.0695,-0.0695,-0.069,-0.069,-0.069,0,0,-0.0819,-0.081,-0.0804,-0.0796,-0.0784,-0.0777,-0.0775,-0.0762,-0.0757,-0.0748,-0.0741,-0.0734,-0.072,-0.0713,-0.0708,-0.0707,-0.0702,-0.0705,-0.0709,-0.0706,-0.0706,-0.0706,-0.0707,-0.0707,-0.0705,-0.0705,-0.0705,0,-0.0824,-0.0812,-0.0802,-0.0794,-0.0788,-0.0779,-0.0773,-0.0766,-0.0752,-0.0749,-0.0747,-0.073,-0.0722,-0.0713,-0.0713,-0.0709,-0.0708,-0.0707,-0.0707,-0.0707,-0.0707,-0.0708,-0.0708,-0.0705,-0.0705,-0.0705,-0.0705,0,-0.0818,-0.081,-0.0807,-0.0794,-0.0787,-0.0781,-0.077,-0.0765,-0.076,-0.0753,-0.0745,-0.0735,-0.0725,-0.0723,-0.0717,-0.0713,-0.0713,-0.0709,-0.0705,-0.0708,-0.0708,-0.0708,-0.0706,-0.0706,-0.0706,-0.0706,0,0,-0.0824,-0.0806,-0.0805,-0.08,-0.0786,-0.078,-0.0774,-0.0764,-0.0761,-0.0752,-0.0747,-0.0736,-0.0732,-0.0726,-0.072,-0.0718,-0.0719,-0.0714,-0.0714,-0.0716,-0.0715,-0.0719,-0.0719,-0.0715,-0.0715,-0.0715,-0.0717,0,-0.0823,-0.081,-0.0802,-0.0793,-0.0786,-0.0778,-0.0773,-0.0764,-0.0758,-0.0752,-0.0745,-0.0737,-0.0733,-0.073,-0.0727,-0.0719,-0.0719,-0.0719,-0.0711,-0.0711,-0.0714,-0.0719,-0.0722,-0.0723,-0.0716,-0.0716,-0.0716,0,-0.082,-0.0811,-0.0802,-0.0791,-0.0788,-0.0783,-0.0774,-0.0768,-0.0759,-0.0754,-0.0748,-0.0742,-0.0736,-0.0733,-0.0725,-0.0726,-0.0722,-0.0718,-0.0718,-0.0717,-0.0714,-0.0718,-0.0723,-0.0724,-0.0716,-0.0716,-0.0716,0,-0.0825,-0.0812,-0.0805,-0.08,-0.0787,-0.0784,-0.0778,-0.0769,-0.0764,-0.0757,-0.0754,-0.0746,-0.0741,-0.0736,-0.0728,-0.0726,-0.0721,-0.0717,-0.0717,-0.0718,-0.0717,-0.0717,-0.0722,-0.0714,-0.0714,-0.0714,-0.0714,0,-0.0825,-0.082,-0.0807,-0.0803,-0.0797,-0.0788,-0.0783,-0.0777,-0.0769,-0.0764,-0.0756,-0.0752,-0.0742,-0.0736,-0.073,-0.0725,-0.0723,-0.072,-0.0718,-0.072,-0.0721,-0.0718,-0.0718,-0.0714,-0.0714,-0.0714,-0.0714,0,-0.083,-0.0822,-0.0814,-0.0802,-0.0799,-0.0795,-0.0786,-0.0782,-0.0775,-0.0769,-0.0767,-0.0757,-0.075,-0.0742,-0.0732,-0.0728,-0.0724,-0.0721,-0.0727,-0.0726,-0.0727,-0.0728,-0.0731,-0.0731,-0.0723,-0.0723,-0.0723,0,-0.0831,-0.0827,-0.0815,-0.0811,-0.0806,-0.0799,-0.0795,-0.0786,-0.0781,-0.0772,-0.0769,-0.0762,-0.0755,-0.0745,-0.0738,-0.0731,-0.0728,-0.073,-0.0727,-0.073,-0.0729,-0.0729,-0.0729,-0.073,-0.0731,-0.0731,-0.0731,0,-0.0833,-0.0829,-0.0822,-0.0815,-0.0809,-0.0803,-0.0796,-0.0793,-0.0783,-0.0779,-0.0772,-0.0767,-0.0758,-0.0751,-0.0743,-0.0738,-0.0733,-0.0732,-0.0732,-0.0734,-0.0738,-0.0736,-0.0729,-0.0732,-0.0732,-0.0731,-0.0731,-0.0731,-0.0836,-0.0833,-0.0824,-0.0817,-0.0811,-0.0805,-0.0801,-0.0795,-0.0789,-0.0781,-0.0776,-0.077,-0.0762,-0.0751,-0.0746,-0.0742,-0.074,-0.0739,-0.0739,-0.0739,-0.074,-0.0738,-0.074,-0.074,-0.074,-0.074,-0.074,0,-0.0839,-0.0833,-0.0827,-0.0818,-0.0813,-0.0808,-0.0801,-0.0797,-0.0792,-0.0785,-0.0779,-0.0772,-0.0766,-0.0758,-0.0751,-0.0749,-0.0747,-0.0748,-0.0748,-0.0747,-0.0742,-0.0743,-0.075,-0.075,-0.075,-0.075,-0.075,-0.075,-0.0839,-0.0833,-0.0829,-0.082,-0.0815,-0.0808,-0.0805,-0.08,-0.0794,-0.0787,-0.0781,-0.0776,-0.077,-0.0763,-0.0757,-0.0755,-0.0753,-0.0755,-0.0752,-0.0748,-0.0747,-0.0746,-0.0747,-0.0755,-0.0755,-0.0758,-0.0758,-0.0758]},{"header":{"parameterUnit":"m.s-1","parameterCategory":1,"la1":30.2991,"la2":30.254,"lo1":-89.0895,"lo2":-89.0444,"dy":0.0017,"dx":0.0017,"nx":28,"ny":28,"refTime":"2025-09-12T09:00:00:Z","depth":0,"parameterNumber":3,"parameterNumberName":"V-component_of_WINDS"},"data":[0,0,0,0,0,0,0,0,0,0,0,0,0,0,0,0,0,0,0,0,0,0,0,0,0,0,0,0,0,0,0,0,0,0,0,0,0,0,0,0,0,0,0,0,0,0,0,0,0,0,0,0,0,0,0,0,0,0,-1.3659,-1.3662,0,-1.3931,-1.3934,-1.3937,-1.4064,-1.4064,-1.4063,-1.4063,-1.4341,-1.4349,-1.4356,0,0,0,0,0,0,0,0,0,0,0,0,0,-1.3248,-1.3255,-1.3658,-1.3662,-1.3665,-1.3931,-1.3934,-1.3938,-1.4064,-1.4063,-1.4063,-1.4063,-1.4339,-1.4348,-1.4357,0,0,0,0,0,0,0,0,0,0,0,0,0,-1.3464,-1.3257,-1.3658,-1.376,-1.3772,-1.393,-1.3935,-1.3939,-1.4064,-1.4063,-1.4063,-1.4063,-1.4336,-1.4347,-1.4358,-1.4435,0,0,-1.4393,-1.4398,0,0,0,0,0,0,0,0,-1.3452,-1.3479,-1.3742,-1.3753,-1.3767,-1.3963,-1.3892,-1.4105,-1.4064,-1.3953,-1.4063,-1.4063,-1.4216,-1.4237,-1.4289,-1.4448,-1.446,-1.4394,-1.4401,-1.4406,-1.4409,0,0,0,0,0,0,0,-1.3437,-1.3468,-1.3766,-1.3745,-1.3761,-1.3793,-1.3823,-1.3933,-1.4083,-1.3963,-1.3972,-1.4003,-1.4222,-1.4277,-1.4296,-1.4464,-1.4394,-1.4404,-1.4411,-1.4415,-1.4703,-1.4704,0,0,0,0,0,0,-1.3405,-1.3455,-1.3758,-1.3775,-1.3605,-1.38,-1.3834,-1.39,-1.4082,-1.4109,-1.4003,-1.4008,-1.4258,-1.4283,-1.4306,-1.4411,-1.4406,-1.4416,-1.4423,-1.4702,-1.4703,-1.4704,0,0,0,0,0,0,-1.3396,-1.3431,-1.3747,-1.3618,-1.366,-1.3808,-1.3881,-1.3906,-1.3961,-1.4112,-1.414,-1.4031,-1.4259,-1.429,-1.4403,-1.4422,-1.4422,-1.4432,-1.4702,-1.4703,-1.4704,-1.4617,0,0,0,0,0,0,-1.3383,-1.3427,-1.3457,-1.3617,-1.3667,-1.3838,-1.3882,-1.3911,-1.398,-1.3989,-1.4146,-1.4172,-1.4261,-1.4385,-1.4414,-1.4438,-1.4441,-1.47,-1.4702,-1.4704,-1.4619,-1.4615,-1.4612,0,0,0,0,0,-1.3368,-1.342,-1.3457,-1.3493,-1.3707,-1.3838,-1.3867,-1.3968,-1.3981,-1.4013,-1.4111,-1.4167,-1.4415,-1.4396,-1.4429,-1.4456,-1.47,-1.4702,-1.4703,-1.4621,-1.4616,-1.4612,0,0,0,0,0,0,-1.3257,-1.3443,-1.3486,-1.3592,-1.3699,-1.3859,-1.3903,-1.396,-1.4064,-1.4068,-1.419,-1.4224,-1.4326,-1.4403,-1.4378,-1.4542,-1.4563,-1.4571,-1.4488,-1.4485,-1.4482,-1.4461,-1.445,0,0,0,0,0,-1.3245,-1.3336,-1.3494,-1.3572,-1.3623,-1.3753,-1.3814,-1.3884,-1.3999,-1.4044,-1.415,-1.426,-1.4363,-1.4428,-1.4531,-1.4631,-1.4668,-1.4666,-1.4663,-1.4659,-1.4665,-1.4727,-1.4728,-1.471,-1.471,-1.471,0,0,-1.3221,-1.3334,-1.3384,-1.3553,-1.3643,-1.3736,-1.3791,-1.3885,-1.3955,-1.4059,-1.4172,-1.4254,-1.4384,-1.4491,-1.4544,-1.4558,-1.4679,-1.4662,-1.4658,-1.4666,-1.4729,-1.473,-1.4731,-1.4712,-1.4711,-1.4711,0,0,-1.3224,-1.3318,-1.3395,-1.3485,-1.3622,-1.3709,-1.3727,-1.3881,-1.394,-1.4055,-1.4136,-1.4221,-1.4395,-1.4486,-1.4555,-1.4596,-1.4652,-1.4626,-1.4608,-1.4666,-1.4667,-1.4669,-1.4685,-1.469,-1.4631,-1.4631,-1.4631,0,-1.3176,-1.3319,-1.3427,-1.3518,-1.3591,-1.369,-1.377,-1.3852,-1.4015,-1.4064,-1.4078,-1.4301,-1.4395,-1.4526,-1.4537,-1.4588,-1.4614,-1.4608,-1.4658,-1.4661,-1.4665,-1.4682,-1.4687,-1.4627,-1.4628,-1.4628,-1.4628,0,-1.3255,-1.3352,-1.3398,-1.3554,-1.3633,-1.3717,-1.3839,-1.3905,-1.3968,-1.4053,-1.4172,-1.4289,-1.4419,-1.4455,-1.4517,-1.4596,-1.4601,-1.4635,-1.4658,-1.466,-1.4679,-1.4686,-1.4621,-1.4623,-1.4624,-1.4625,0,0,-1.3194,-1.3412,-1.3427,-1.35,-1.366,-1.3738,-1.3828,-1.3956,-1.4011,-1.4121,-1.4201,-1.4347,-1.4381,-1.4459,-1.4532,-1.4583,-1.4611,-1.4612,-1.4617,-1.4609,-1.4707,-1.4681,-1.4687,-1.4649,-1.465,-1.4652,-1.4697,0,-1.322,-1.3387,-1.3488,-1.3613,-1.3706,-1.3803,-1.3882,-1.3989,-1.4072,-1.4163,-1.4255,-1.4358,-1.4393,-1.4442,-1.4496,-1.4595,-1.4632,-1.4593,-1.4725,-1.4728,-1.469,-1.4696,-1.4669,-1.4705,-1.4704,-1.4706,-1.4707,0,-1.3273,-1.3382,-1.3517,-1.367,-1.3712,-1.3781,-1.3908,-1.3994,-1.4118,-1.4175,-1.4264,-1.4338,-1.4439,-1.4454,-1.4595,-1.4566,-1.4626,-1.4683,-1.4687,-1.4704,-1.4718,-1.4714,-1.4719,-1.4725,-1.4718,-1.4718,-1.4717,0,-1.3217,-1.3398,-1.3503,-1.3563,-1.3743,-1.3789,-1.3866,-1.3991,-1.4062,-1.4173,-1.4221,-1.4341,-1.4408,-1.45,-1.4606,-1.4606,-1.4737,-1.476,-1.4788,-1.4785,-1.4811,-1.4808,-1.4827,-1.4848,-1.4848,-1.4847,-1.4847,0,-1.3237,-1.3316,-1.3481,-1.3545,-1.3638,-1.3754,-1.3842,-1.3927,-1.4037,-1.4121,-1.4212,-1.4288,-1.4423,-1.4517,-1.46,-1.4705,-1.4734,-1.4784,-1.4805,-1.4776,-1.477,-1.4818,-1.4818,-1.4849,-1.4849,-1.4848,-1.4848,0,-1.319,-1.3303,-1.3425,-1.3586,-1.3629,-1.3689,-1.3828,-1.3895,-1.3984,-1.4089,-1.412,-1.4259,-1.4374,-1.4489,-1.4643,-1.4699,-1.4804,-1.4832,-1.4762,-1.4774,-1.4796,-1.4793,-1.4847,-1.4861,-1.487,-1.4869,-1.4869,0,-1.3195,-1.3259,-1.3427,-1.349,-1.3566,-1.3665,-1.374,-1.3857,-1.393,-1.4079,-1.4128,-1.425,-1.4354,-1.4534,-1.4649,-1.4768,-1.4801,-1.4812,-1.4819,-1.4789,-1.4803,-1.4798,-1.4806,-1.4808,-1.4807,-1.4807,-1.4806,0,-1.3193,-1.3247,-1.335,-1.3474,-1.3559,-1.3662,-1.3768,-1.3815,-1.3953,-1.4031,-1.4151,-1.4231,-1.4391,-1.4511,-1.4645,-1.4725,-1.4789,-1.4803,-1.4816,-1.4788,-1.4745,-1.477,-1.4753,-1.4801,-1.4802,-1.4802,-1.4802,-1.4803,-1.3174,-1.3236,-1.3365,-1.3478,-1.357,-1.3668,-1.374,-1.3838,-1.394,-1.4079,-1.4143,-1.4263,-1.4389,-1.4575,-1.4654,-1.4751,-1.4768,-1.4786,-1.4791,-1.4794,-1.4788,-1.4729,-1.4776,-1.4776,-1.4776,-1.4777,-1.4777,0,-1.3178,-1.3266,-1.3369,-1.3515,-1.3605,-1.3658,-1.3779,-1.385,-1.3955,-1.4067,-1.4168,-1.4307,-1.4425,-1.455,-1.4676,-1.473,-1.4762,-1.4759,-1.4756,-1.4775,-1.4765,-1.4742,-1.473,-1.473,-1.473,-1.473,-1.473,-1.473,-1.319,-1.3299,-1.3368,-1.3524,-1.3613,-1.3732,-1.3797,-1.3888,-1.3979,-1.413,-1.4229,-1.431,-1.4428,-1.4564,-1.4675,-1.4709,-1.4752,-1.474,-1.4782,-1.4772,-1.4775,-1.4778,-1.4757,-1.4748,-1.4748,-1.4784,-1.4784,-1.4784]}]]